Terminal Aerodrome Forecast
Issued by NWS Sioux Falls, SD

Home | Current Version | Previous Version | Text Only | Print | Product List | Glossary On
Versions: 1 2 3 4 5 6 7 8 9 10 11 12 13 14 15 16 17 18 19 20 21 22 23 24 25 26 27 28 29 30 31 32 33 34 35 36
000
FTUS43 KFSD 191233 AAA
TAFSUX
TAF AMD
KSUX 191233Z 1913/2012 33010KT P6SM OVC006
      TEMPO 1913/1914 4SM BR
     FM191500 34013G19KT P6SM BKN015 OVC025
     FM191700 34023G33KT P6SM BKN045
     FM200100 33015G23KT P6SM SCT070=

USA.gov is the U.S. government's official web portal to all federal, state and local government web resources and services.